Kirtland AFB, NM

11:38 PM MST on January 19, 2017 (GMT -0700)
Albuquerque International Sunport

Weather History for KABQ - September, 2011

Change the Weather History Date:

Thursday, September 29, 2011

  Actual Average Record
Temperature  
Mean Temperature 75 °F 64 °F  
Max Temperature 89 °F 76 °F 90 °F (1979)
Min Temperature 60 °F 53 °F 34 °F (1917)
Degree Days  
Heating Degree Days 0 3  
Month to date heating degree days 0 23  
Since 1 July heating degree days 0 23  
Cooling Degree Days 10 2  
Month to date cooling degree days 175 155  
Year to date cooling degree days 1702 1312  
Growing Degree Days 23 (Base 50)    
Moisture  
Dew Point 32 °F    
Average Humidity 24    
Maximum Humidity 34    
Minimum Humidity 14    
Precipitation  
Precipitation T in 0.03 in 0.86 in (1904)
Month to date precipitation 0.40 1.04  
Year to date precipitation 1.91 7.32  
Snow  
Snow 0.00 in - - ()
Month to date snowfall 0.0  
Since 1 July snowfall 0.0  
Since 1 September snowfall 0.0  
Snow Depth 0.00 in    
Sea Level Pressure  
Sea Level Pressure 30.04 in    
Wind  
Wind Speed 14 mph (ENE)    
Max Wind Speed 36 mph    
Max Gust Speed 46 mph    
Visibility 10 miles    
Events Rain    
T = Trace of Precipitation, MM = Missing Value Source: NWS Daily Summary

Daily Weather History Graph

Daily Weather History Graph

Search for Another Location

Airport or City:

Trip Planner

Search our weather history database for the weather conditions in past years. The results will help you decide how hot, cold, wet, or windy it might be!

Date:

Astronomy

Sep. 29, 2011 Rise Set
Actual Time 6:59 AM MDT 6:53 PM MDT
Civil Twilight 6:34 AM MDT 7:18 PM MDT
Nautical Twilight 6:04 AM MDT 7:48 PM MDT
Astronomical Twilight 5:35 AM MDT 8:17 PM MDT
Moon 9:38 AM MDT (9/29) 8:18 PM MDT (9/29)
Length of Visible Light 12h 44m
Length of Day
11h 53m
Waxing Crescent, 8% of the Moon is Illuminated
Sep 29
Waxing Crescent
Oct 3
First Quarter
Oct 11
Full
Oct 19
Last Quarter
Oct 26
New

Hourly Weather History & Observations

Time (MDT) Temp. Dew Point Humidity Pressure Visibility Wind Dir Wind Speed Gust Speed Precip Events Conditions
12:56 AM 70.0 °F 27.0 °F 20% 29.88 in 10.0 mi NNE 3.5 mph - N/A   Partly Cloudy
1:56 AM 63.0 °F 25.0 °F 24% 29.91 in 10.0 mi SSE 4.6 mph - N/A   Partly Cloudy
2:56 AM 66.9 °F 25.0 °F 21% 29.89 in 10.0 mi NNE 3.5 mph - N/A   Clear
3:56 AM 64.9 °F 25.0 °F 22% 29.89 in 10.0 mi North 8.1 mph - N/A   Partly Cloudy
4:56 AM 63.0 °F 26.1 °F 25% 29.91 in 10.0 mi NNW 10.4 mph - N/A   Partly Cloudy
5:56 AM 62.1 °F 27.0 °F 26% 29.93 in 10.0 mi West 3.5 mph - N/A   Clear
6:56 AM 60.1 °F 28.9 °F 31% 29.96 in 10.0 mi NNW 5.8 mph - N/A   Partly Cloudy
7:56 AM 61.0 °F 30.0 °F 31% 29.99 in 10.0 mi NNE 3.5 mph - N/A   Partly Cloudy
8:56 AM 64.9 °F 30.0 °F 27% 30.00 in 10.0 mi NNW 5.8 mph - N/A   Partly Cloudy
9:56 AM 70.0 °F 30.0 °F 23% 30.00 in 10.0 mi NW 3.5 mph - N/A   Partly Cloudy
10:56 AM 73.9 °F 28.0 °F 18% 29.99 in 10.0 mi Calm Calm - N/A   Partly Cloudy
11:56 AM 79.0 °F 28.9 °F 16% 29.98 in 10.0 mi Calm Calm - N/A   Partly Cloudy
12:56 PM 82.0 °F 30.0 °F 15% 29.96 in 10.0 mi Variable 6.9 mph - N/A   Partly Cloudy
1:56 PM 86.0 °F 32.0 °F 14% 29.94 in 10.0 mi WSW 10.4 mph - N/A   Scattered Clouds
2:32 PM 84.2 °F 30.2 °F 14% 30.20 in 10.0 mi NE 20.7 mph - N/A   Mostly Cloudy
2:56 PM 82.0 °F 30.9 °F 16% 29.97 in 10.0 mi ENE 11.5 mph - N/A   Mostly Cloudy
3:38 PM 78.8 °F 37.4 °F 23% 30.26 in 10.0 mi North 19.6 mph 32.2 mph 0.00 in Rain Light Rain
3:56 PM 79.0 °F 35.1 °F 20% 30.04 in 10.0 mi ESE 9.2 mph - 0.00 in   Mostly Cloudy
4:17 PM 78.8 °F 35.6 °F 21% 30.24 in 9.0 mi East 35.7 mph 42.6 mph N/A   Mostly Cloudy
4:56 PM 78.1 °F 35.1 °F 21% 30.03 in 10.0 mi ENE 31.1 mph 38.0 mph 0.01 in   Mostly Cloudy
5:32 PM 75.2 °F 37.4 °F 25% 30.28 in 9.0 mi Variable 5.8 mph 28.8 mph 0.00 in Rain Light Rain
5:56 PM 75.0 °F 37.9 °F 26% 30.06 in 10.0 mi SE 31.1 mph 36.8 mph 0.00 in   Mostly Cloudy
6:56 PM 73.0 °F 41.0 °F 31% 30.06 in 10.0 mi ESE 27.6 mph 38.0 mph N/A   Mostly Cloudy
7:56 PM 75.0 °F 37.9 °F 26% 30.08 in 9.0 mi SSE 24.2 mph 46.0 mph 0.00 in   Squalls
8:29 PM 73.4 °F 39.2 °F 29% 30.30 in 10.0 mi SE 19.6 mph - 0.00 in   Mostly Cloudy
8:56 PM 72.0 °F 39.0 °F 30% 30.10 in 10.0 mi ESE 26.5 mph 34.5 mph 0.00 in   Mostly Cloudy
9:56 PM 70.0 °F 37.0 °F 30% 30.12 in 10.0 mi East 25.3 mph 36.8 mph N/A   Mostly Cloudy
10:56 PM 66.9 °F 36.0 °F 32% 30.13 in 10.0 mi East 31.1 mph 38.0 mph N/A   Scattered Clouds
11:56 PM 64.9 °F 35.1 °F 33% 30.14 in 8.0 mi ESE 28.8 mph 36.8 mph N/A   Partly Cloudy